Location: Torrington
(42.0650°N, 104.1810°W)
Time: 03:53:14
(UTC-07:00)

Amateur Radio Satellites - All Passes

Search period start: 17 January 2017 03:23
Search period end: 18 January 2017 03:23
Location: Torrington, 42.0650°N, 104.1810°W

Satellite Date Start Highest point End Downlink Frequencies (MHz)
Time Altitude Azimuth
BEESAT 17 Jan 03:23:38 03:25:21 12° 271° (W) 03:27:05 436.000
PCSat 17 Jan 03:37:42 03:40:26 14° 323° (NW) 03:43:11 145.827
BRITE-PL 17 Jan 03:45:15 03:47:46 14° 87° (E) 03:50:11 437.365/2234.400
MOZHAYETS 4 17 Jan 03:51:45 03:54:58 19° 268° (W) 03:58:14
PHONESAT 2.4 17 Jan 03:57:02 03:59:07 29° 163° (SSE) 04:01:11 2401.200-2431.200
ISS 17 Jan 03:59:37 04:02:07 20° 15° (NNE) 04:04:37 145.825
M-CUBED/EXP-1 PRIME 17 Jan 04:03:31 04:06:16 16° 262° (W) 04:08:57 437.505
CUSAT 1 17 Jan 04:06:35 04:11:12 52° 287° (WNW) 04:17:16 437.405
AIST 2 17 Jan 04:16:50 04:20:32 28° 47° (NE) 04:24:13 435.215
DANDE 17 Jan 04:19:32 04:22:54 53° 94° (E) 04:27:23 436.750
Cosmos 2504 17 Jan 04:23:34 04:27:17 15° 283° (WNW) 04:30:56 435.465 / 435.565
HORYU 2 17 Jan 04:23:34 04:25:54 14° 91° (E) 04:28:13 437.375
CUBESAT XI-V 17 Jan 04:25:19 04:29:53 53° 260° (W) 04:34:31 437.345
STARS 17 Jan 04:25:42 04:29:56 47° 260° (W) 04:34:10 437.465
ITAMSAT 1 17 Jan 04:54:03 04:56:55 15° 301° (WNW) 04:59:47 435.822/435.867
AO-7 17 Jan 04:59:44 05:07:28 43° 299° (WNW) 05:15:09 29.400- 29.500
Cosmos 2499 17 Jan 05:01:32 05:03:43 11° 57° (ENE) 05:05:52 435.465 / 435.565
NOAA 15 17 Jan 05:01:34 05:04:28 15° 90° (E) 05:07:21 137.62
RS-15 17 Jan 05:07:26 05:16:59 25° 5° (N) 05:26:30 29.354- 29.394
DOVE 4 17 Jan 05:08:05 05:09:48 12° 89° (E) 05:11:30 437.250
BRITE-PL 17 Jan 05:21:48 05:26:50 64° 287° (WNW) 05:31:26 437.365/2234.400
GONETS M04 17 Jan 05:25:32 05:31:27 19° 61° (ENE) 05:37:20
PHONESAT 2.4 17 Jan 05:30:51 05:33:09 58° 179° (S) 05:35:26 2401.200-2431.200
LilacSat-2 17 Jan 05:32:31 05:35:50 27° 96° (E) 05:39:09 437.200
CUTE-I 17 Jan 05:35:18 05:39:57 29° 96° (E) 05:44:33 437.470
ISS 17 Jan 05:35:44 05:39:00 80° 34° (NNE) 05:42:14 145.825
GOMX 1 17 Jan 05:45:21 05:49:56 90° 224° (SW) 05:54:13 467.674
NOAA 18 17 Jan 05:51:09 05:55:21 22° 94° (E) 05:59:31 137.9125
AIST 2 17 Jan 05:55:13 05:59:01 32° 245° (WSW) 06:02:46 435.215
HORYU 2 17 Jan 05:58:25 06:02:46 56° 288° (WNW) 06:07:07 437.375
DANDE 17 Jan 06:05:12 06:06:32 11° 303° (WNW) 06:07:58 436.750
STRAND 1 17 Jan 06:15:58 06:21:00 69° 73° (ENE) 06:26:05 437.568
Cubesat XI-IV 17 Jan 06:16:47 06:22:07 69° 102° (ESE) 06:27:26 437.490
O/OREOS (USA 219) 17 Jan 06:29:04 06:33:16 42° 107° (ESE) 06:37:30 437.305
NOAA 15 17 Jan 06:39:27 06:44:46 71° 287° (WNW) 06:50:01 137.62
HO-68 17 Jan 06:42:15 06:48:10 27° 94° (E) 06:54:01 435.675
CANX-2 17 Jan 06:42:59 06:46:17 21° 93° (E) 06:49:34 2200.000
DOVE 4 17 Jan 06:43:46 06:47:55 54° 287° (WNW) 06:51:57 437.250
Cosmos 2499 17 Jan 06:51:13 06:58:26 70° 80° (E) 07:05:27 435.465 / 435.565
AO-7 17 Jan 06:57:06 06:58:01 10° 321° (NW) 06:58:56 29.400- 29.500
SEEDS 17 Jan 07:02:08 07:05:15 20° 93° (E) 07:08:21 437.485
CINEMA 3 17 Jan 07:02:13 07:06:17 51° 100° (E) 07:10:25 145.822/145.860
PHONESAT 2.4 17 Jan 07:05:04 07:07:09 30° 196° (SSW) 07:09:17 2401.200-2431.200
LilacSat-2 17 Jan 07:06:59 07:09:59 22° 292° (WNW) 07:13:00 437.200
SO-50 17 Jan 07:12:25 07:13:46 11° 107° (ESE) 07:15:07 436.795
ISS 17 Jan 07:13:45 07:15:02 12° 230° (SW) 07:16:20 145.825
COMPASS 1 17 Jan 07:14:56 07:17:49 18° 92° (E) 07:20:40 437.405
CUTE-I 17 Jan 07:15:10 07:20:01 36° 292° (WNW) 07:24:51 437.470
GONETS M04 17 Jan 07:20:44 07:29:38 87° 83° (E) 07:38:30
RS-15 17 Jan 07:22:26 07:34:04 43° 38° (NE) 07:45:22 29.354- 29.394
UWE-3 17 Jan 07:23:16 07:25:24 13° 91° (E) 07:27:32 435.000/436.395/437.385
AAUSAT CUBESAT 2 17 Jan 07:29:55 07:33:00 20° 93° (E) 07:36:04 437.432
NOAA 18 17 Jan 07:31:00 07:36:15 50° 290° (WNW) 07:41:29 137.9125
CUTE 1.7 + AOD 2 17 Jan 07:49:31 07:53:50 82° 285° (WNW) 07:58:07 437.475
ZACube-1 17 Jan 07:50:00 07:52:42 16° 92° (E) 07:55:25 437.345
ANTELSAT 17 Jan 07:54:56 07:56:11 11° 61° (ENE) 07:57:27 437.575/2403.000
STRAND 1 17 Jan 07:58:01 08:00:40 14° 270° (W) 08:03:20 437.568
Cubesat XI-IV 17 Jan 07:58:17 08:01:37 17° 300° (WNW) 08:04:56 437.490
PRISM 17 Jan 08:06:41 08:10:44 51° 72° (ENE) 08:14:47 437.425
O/OREOS (USA 219) 17 Jan 08:09:28 08:12:51 21° 304° (NW) 08:16:15 437.305
CANX-2 17 Jan 08:18:18 08:22:12 34° 289° (WNW) 08:26:05 2200.000
CUBEBUG 2 17 Jan 08:21:39 08:25:57 88° 281° (W) 08:30:21 437.445
NOAA 15 17 Jan 08:22:55 08:23:33 10° 305° (NW) 08:24:12 137.62
HO-68 17 Jan 08:29:14 08:36:16 59° 292° (WNW) 08:43:16 435.675
Oscar 11 17 Jan 08:32:19 08:36:24 37° 97° (E) 08:40:27 145.826/435.025
SEEDS 17 Jan 08:37:08 08:41:03 36° 289° (WNW) 08:44:56 437.485
CINEMA 3 17 Jan 08:40:48 08:43:02 14° 296° (WNW) 08:45:16 145.822/145.860
Cosmos 2499 17 Jan 08:45:55 08:50:42 19° 280° (W) 08:55:26 435.465 / 435.565
SO-50 17 Jan 08:48:49 08:53:34 86° 304° (NW) 08:58:15 436.795
COMPASS 1 17 Jan 08:49:35 08:53:31 39° 288° (WNW) 08:57:25 437.405
PCSat 17 Jan 08:55:35 08:59:27 19° 43° (NE) 09:03:18 145.827
UWE-3 17 Jan 08:57:55 09:02:09 56° 286° (WNW) 09:06:29 435.000/436.395/437.385
UNISAT 6 17 Jan 08:59:20 09:03:30 55° 73° (ENE) 09:07:40 437.425
FUNcube-1 17 Jan 09:03:55 09:08:16 87° 291° (WNW) 09:12:43 145.935
AAUSAT CUBESAT 2 17 Jan 09:04:45 09:08:33 34° 289° (WNW) 09:12:20 437.432
TIGRISAT 17 Jan 09:13:45 09:18:00 74° 75° (ENE) 09:22:15 435.000
DELFI C3 17 Jan 09:18:34 09:22:21 40° 98° (E) 09:26:06 145.870
GONETS M04 17 Jan 09:19:32 09:25:14 19° 283° (WNW) 09:30:57
ZACube-1 17 Jan 09:25:02 09:29:11 47° 287° (WNW) 09:33:27 437.345
ANTELSAT 17 Jan 09:28:03 09:32:19 72° 259° (W) 09:36:35 437.575/2403.000
RS-15 17 Jan 09:35:19 09:47:34 72° 244° (WSW) 09:59:18 29.354- 29.394
JAS-2 17 Jan 09:35:24 09:40:20 42° 68° (ENE) 09:45:40 435.910
QB50P1 17 Jan 09:37:32 09:39:50 15° 63° (ENE) 09:42:08 145.935-145.965
POLYITAN 1 17 Jan 09:40:17 09:42:47 16° 64° (ENE) 09:45:17 437.675
QB50P2 17 Jan 09:41:08 09:43:51 17° 65° (ENE) 09:46:35 145.880/145.840
PRISM 17 Jan 09:44:11 09:46:18 14° 269° (W) 09:48:26 437.425
POPSAT HIP 1 17 Jan 10:02:42 10:06:11 26° 68° (ENE) 10:09:39 437.405
HUMSAT D 17 Jan 10:07:43 10:12:00 82° 102° (ESE) 10:16:18 437.325/437.525
Oscar 11 17 Jan 10:09:03 10:12:17 21° 294° (WNW) 10:15:30 145.826/435.025
DUCHIFAT 1 17 Jan 10:17:47 10:21:30 32° 70° (ENE) 10:25:13 145.980
HO-68 17 Jan 10:19:57 10:22:31 12° 312° (NW) 10:25:05 435.675
NANOSAT C BR1 17 Jan 10:21:13 10:25:06 38° 71° (ENE) 10:29:00 145.865
SO-50 17 Jan 10:31:59 10:34:43 15° 323° (NW) 10:37:26 436.795
PCSat 17 Jan 10:38:02 10:43:29 79° 242° (WSW) 10:48:54 145.827
UNISAT 6 17 Jan 10:38:36 10:40:33 13° 269° (W) 10:42:31 437.425
DELFI C3 17 Jan 10:54:17 10:56:50 16° 295° (WNW) 10:59:22 145.870
BY70-1 17 Jan 11:02:58 11:06:26 80° 284° (WNW) 11:09:42 436.1900
BUGSAT 1 17 Jan 11:06:47 11:10:36 40° 72° (ENE) 11:14:24 437.445
QB50P1 17 Jan 11:11:04 11:15:10 52° 260° (W) 11:19:17 145.935-145.965
POLYITAN 1 17 Jan 11:14:08 11:18:11 48° 260° (W) 11:22:15 437.675
QB50P2 17 Jan 11:15:18 11:19:19 43° 261° (W) 11:23:21 145.880/145.840
JAS-2 17 Jan 11:21:29 11:25:42 24° 268° (W) 11:30:12 435.910
CUBEBUG 1 17 Jan 11:24:26 11:28:33 40° 98° (E) 11:32:36 437.445
SPROUT 17 Jan 11:24:51 11:27:51 18° 93° (E) 11:30:49 437.525
AISAT 17 Jan 11:31:37 11:35:32 31° 97° (E) 11:39:26 437.250
Cosmos 2491 17 Jan 11:36:17 11:42:04 19° 61° (ENE) 11:47:48 435.465 / 435.565
POPSAT HIP 1 17 Jan 11:38:18 11:41:52 27° 264° (W) 11:45:27 437.405
ESTCUBE 1 17 Jan 11:38:22 11:42:56 83° 284° (WNW) 11:47:27 437.505/2401.250
HUMSAT D 17 Jan 11:46:36 11:46:57 10° 299° (WNW) 11:47:18 437.325/437.525
RS-15 17 Jan 11:51:07 11:57:36 16° 265° (W) 12:04:00 29.354- 29.394
DUCHIFAT 1 17 Jan 11:54:02 11:57:13 21° 266° (W) 12:00:26 145.980
NANOSAT C BR1 17 Jan 11:58:06 12:00:58 18° 267° (W) 12:03:50 145.865
Gurwin Techsat 1B 17 Jan 12:03:56 12:08:18 27° 65° (ENE) 12:12:42 435.225
VELOX 1 17 Jan 12:04:54 12:09:18 69° 102° (ESE) 12:13:39 145.980
Oscar 19 17 Jan 12:16:45 12:21:52 63° 72° (ENE) 12:27:01 437.125/150
AO-7 17 Jan 12:18:27 12:22:56 16° 45° (NE) 12:27:24 29.400- 29.500
50 SAT 17 Jan 12:37:53 12:41:23 52° 286° (WNW) 12:44:49 437.505
BUGSAT 1 17 Jan 12:43:33 12:46:07 16° 267° (W) 12:48:42 437.445
DX 1 17 Jan 12:48:37 12:52:58 83° 285° (WNW) 12:57:17 434.975-435.025
ITAMSAT 1 17 Jan 12:54:24 12:57:34 17° 60° (ENE) 13:00:46 435.822/435.867
UKube-1 17 Jan 12:54:40 12:59:00 84° 104° (ESE) 13:03:17 .
CUSAT 1 17 Jan 12:56:44 13:03:00 25° 64° (ENE) 13:09:10 437.405
SPROUT 17 Jan 12:59:58 13:03:54 38° 289° (WNW) 13:07:50 437.525
CUBEBUG 1 17 Jan 13:01:28 13:04:32 19° 295° (WNW) 13:07:34 437.445
TISAT 1 17 Jan 13:04:31 13:08:16 32° 97° (E) 13:12:01 437.305
AISAT 17 Jan 13:08:17 13:11:52 24° 293° (WNW) 13:15:24 437.250
DANDE 17 Jan 13:13:51 13:16:51 12° 59° (ENE) 13:19:58 436.750
Cosmos 2504 17 Jan 13:16:51 13:21:07 15° 76° (ENE) 13:25:16 435.465 / 435.565
AIST 1 17 Jan 13:29:31 13:33:15 28° 90° (E) 13:37:00
Cosmos 2491 17 Jan 13:31:27 13:40:17 86° 83° (E) 13:49:06 435.465 / 435.565
YUBILEINY 17 Jan 13:39:38 13:47:42 43° 87° (E) 13:55:49 435.215
BEESAT 17 Jan 13:43:00 13:46:14 18° 92° (E) 13:49:27 436.000
Gurwin Techsat 1B 17 Jan 13:43:03 13:48:02 41° 262° (W) 13:53:03 435.225
VELOX 1 17 Jan 13:43:19 13:45:11 12° 299° (WNW) 13:47:01 145.980
SWISSCUBE 17 Jan 13:43:59 13:47:34 21° 93° (E) 13:51:08 437.505
Oscar 19 17 Jan 13:58:24 14:01:36 16° 269° (W) 14:04:48 437.125/150
AO-7 17 Jan 14:05:53 14:14:05 64° 66° (ENE) 14:22:20 29.400- 29.500
ITAMSAT 1 17 Jan 14:31:20 14:36:29 68° 258° (WSW) 14:41:39 435.822/435.867
AO-85 17 Jan 14:32:01 14:36:46 75° 121° (ESE) 14:41:10 145.980
UKube-1 17 Jan 14:34:06 14:34:20 10° 301° (WNW) 14:34:35 .
CUSAT 1 17 Jan 14:37:44 14:45:43 78° 263° (W) 14:53:20 437.405
TISAT 1 17 Jan 14:40:32 14:43:43 22° 293° (WNW) 14:46:54 437.305
ITUPSAT 1 17 Jan 14:42:33 14:47:21 70° 103° (ESE) 14:52:08 437.325
DANDE 17 Jan 14:53:26 15:00:49 59° 77° (ENE) 15:09:02 436.750
BRITE-PL 17 Jan 14:54:49 14:59:02 22° 64° (ENE) 15:03:14 437.365/2234.400
O/OREOS (USA 219) 17 Jan 15:01:23 15:02:40 11° 49° (NE) 15:03:58 437.305
Cosmos 2504 17 Jan 15:04:25 15:13:10 77° 95° (E) 15:21:28 435.465 / 435.565
AIST 1 17 Jan 15:07:12 15:10:48 24° 286° (WNW) 15:14:24
KKS-1 17 Jan 15:13:25 15:15:41 14° 91° (E) 15:17:57 437.445
GOMX 1 17 Jan 15:17:39 15:20:25 14° 61° (ENE) 15:23:08 467.674
BEESAT 17 Jan 15:19:39 15:24:16 50° 289° (WNW) 15:28:53 436.000
SWISSCUBE 17 Jan 15:20:59 15:25:32 43° 289° (WNW) 15:30:04 437.505
HORYU 2 17 Jan 15:22:17 15:24:45 15° 62° (ENE) 15:27:12 437.375
Cosmos 2491 17 Jan 15:30:13 15:35:56 20° 282° (WNW) 15:41:40 435.465 / 435.565
YUBILEINY 17 Jan 15:36:09 15:44:26 44° 287° (WNW) 15:52:48 435.215
SO-50 17 Jan 15:40:40 15:43:20 15° 37° (NE) 15:46:00 436.795
M-CUBED/EXP-1 PRIME 17 Jan 15:40:46 15:43:42 26° 101° (ESE) 15:46:31 437.505
MOZHAYETS 4 17 Jan 15:44:27 15:49:07 85° 283° (WNW) 15:53:45
AO-7 17 Jan 16:00:19 16:07:19 29° 265° (W) 16:14:24 29.400- 29.500
Cubesat XI-IV 17 Jan 16:01:53 16:05:08 17° 60° (ENE) 16:08:23 437.490
BEESAT 3 17 Jan 16:08:29 16:11:24 21° 112° (ESE) 16:14:22 437.485
DOVE 4 17 Jan 16:12:56 16:16:14 18° 65° (ENE) 16:19:26 437.250
STARS 17 Jan 16:14:40 16:18:27 28° 96° (E) 16:22:13 437.465
AO-85 17 Jan 16:14:42 16:17:36 16° 318° (NW) 16:20:23 145.980
LilacSat-2 17 Jan 16:15:54 16:18:04 15° 66° (ENE) 16:20:15 437.200
AUBIESAT-1 17 Jan 16:19:59 16:23:23 73° 108° (ESE) 16:26:40 437.475
CUBESAT XI-V 17 Jan 16:21:26 16:25:47 36° 97° (E) 16:30:05 437.345
NOAA 15 17 Jan 16:21:27 16:25:45 26° 64° (ENE) 16:30:04 137.62
CUSAT 1 17 Jan 16:22:01 16:26:23 16° 281° (WNW) 16:30:42 437.405
ITUPSAT 1 17 Jan 16:22:02 16:24:36 15° 299° (WNW) 16:27:11 437.325
BRITE-PL 17 Jan 16:31:26 16:37:01 60° 260° (W) 16:42:38 437.365/2234.400
DANDE 17 Jan 16:36:44 16:43:14 32° 272° (W) 16:50:19 436.750
O/OREOS (USA 219) 17 Jan 16:38:16 16:42:47 88° 68° (ENE) 16:47:18 437.305
BEESAT 2 17 Jan 16:45:51 16:48:57 23° 113° (ESE) 16:52:06 435.950
KKS-1 17 Jan 16:48:15 16:52:35 55° 287° (WNW) 16:56:54 437.445
GOMX 1 17 Jan 16:52:22 16:57:50 84° 255° (WSW) 17:03:08 467.674
HORYU 2 17 Jan 16:56:29 17:00:49 57° 259° (W) 17:05:11 437.375
CUTE-I 17 Jan 16:57:24 17:02:29 50° 71° (ENE) 17:07:37 437.470
Cosmos 2504 17 Jan 17:00:43 17:07:20 24° 294° (WNW) 17:13:44 435.465 / 435.565
HO-68 17 Jan 17:12:20 17:17:38 23° 56° (ENE) 17:22:57 435.675
M-CUBED/EXP-1 PRIME 17 Jan 17:15:43 17:18:01 17° 299° (WNW) 17:20:16 437.505
NOAA 18 17 Jan 17:17:28 17:22:39 45° 69° (ENE) 17:27:52 137.9125
SO-50 17 Jan 17:19:55 17:24:27 87° 242° (WSW) 17:28:55 436.795
CANX-2 17 Jan 17:36:43 17:39:26 17° 65° (ENE) 17:42:10 2200.000
Cubesat XI-IV 17 Jan 17:39:19 17:44:36 71° 257° (WSW) 17:49:56 437.490
BEESAT 3 17 Jan 17:45:12 17:48:48 35° 310° (NW) 17:52:28 437.485
LilacSat-2 17 Jan 17:48:29 17:52:02 39° 262° (W) 17:55:36 437.200
DOVE 4 17 Jan 17:48:31 17:53:32 57° 260° (W) 17:58:18 437.250
STARS 17 Jan 17:51:03 17:54:43 27° 293° (WNW) 17:58:21 437.465
SEEDS 17 Jan 17:54:55 17:57:22 15° 64° (ENE) 17:59:49 437.485
CUBESAT XI-V 17 Jan 17:59:12 18:02:57 24° 294° (WNW) 18:06:41 437.345
NOAA 15 17 Jan 18:00:17 18:05:16 42° 261° (W) 18:10:19 137.62
CINEMA 3 17 Jan 18:03:57 18:08:17 50° 73° (ENE) 18:12:28 145.822/145.860
COMPASS 1 17 Jan 18:06:56 18:09:00 14° 63° (ENE) 18:11:05 437.405
AAUSAT CUBESAT 2 17 Jan 18:21:13 18:23:33 15° 64° (ENE) 18:25:55 437.432
UWE-3 17 Jan 18:22:04 18:23:20 11° 62° (ENE) 18:24:38 435.000/436.395/437.385
BEESAT 2 17 Jan 18:22:57 18:26:34 33° 311° (NW) 18:30:13 435.950
STRAND 1 17 Jan 18:26:40 18:30:40 23° 94° (E) 18:34:39 437.568
GONETS M04 17 Jan 18:29:03 18:34:49 20° 78° (ENE) 18:40:38
GOMX 1 17 Jan 18:35:30 18:36:31 10° 273° (W) 18:37:34 467.674
CUTE-I 17 Jan 18:38:52 18:42:49 21° 267° (W) 18:46:46 437.470
CUTE 1.7 + AOD 2 17 Jan 18:42:05 18:46:17 72° 76° (ENE) 18:50:34 437.475
ZACube-1 17 Jan 18:47:22 18:49:15 13° 63° (ENE) 18:51:08 437.345
HO-68 17 Jan 18:57:24 19:04:36 77° 255° (WSW) 19:11:51 435.675
NOAA 18 17 Jan 18:59:00 19:03:29 25° 265° (W) 19:07:59 137.9125
CANX-2 17 Jan 19:10:51 19:14:55 45° 261° (W) 19:19:02 2200.000
CUBEBUG 2 17 Jan 19:20:01 19:24:12 79° 77° (ENE) 19:28:21 437.445
Cosmos 2499 17 Jan 19:26:51 19:35:10 59° 92° (E) 19:42:56 435.465 / 435.565
Oscar 11 17 Jan 19:27:28 19:31:14 30° 69° (ENE) 19:35:02 145.826/435.025
SEEDS 17 Jan 19:28:32 19:32:37 50° 261° (W) 19:36:46 437.485
COMPASS 1 17 Jan 19:39:57 19:44:03 57° 260° (W) 19:48:12 437.405
CINEMA 3 17 Jan 19:43:04 19:45:39 15° 268° (W) 19:48:12 145.822/145.860
AIST 2 17 Jan 19:52:22 19:56:18 45° 117° (ESE) 20:00:18 435.215
AAUSAT CUBESAT 2 17 Jan 19:54:33 19:58:36 50° 261° (W) 20:02:42 437.432
UWE-3 17 Jan 19:55:07 19:59:15 67° 259° (W) 20:03:23 435.000/436.395/437.385
FUNcube-1 17 Jan 19:59:38 20:03:45 74° 75° (ENE) 20:07:53 145.935
DELFI C3 17 Jan 20:04:39 20:07:57 25° 69° (ENE) 20:11:16 145.870
STRAND 1 17 Jan 20:05:09 20:10:01 44° 290° (WNW) 20:14:53 437.568
ZACube-1 17 Jan 20:20:59 20:25:03 57° 260° (W) 20:29:09 437.345
GONETS M04 17 Jan 20:21:46 20:30:28 84° 277° (W) 20:39:18
HO-68 17 Jan 20:50:29 20:53:25 13° 273° (W) 20:56:21 435.675
UNISAT 6 17 Jan 20:52:31 20:53:51 11° 90° (E) 20:55:10 437.425
HUMSAT D 17 Jan 20:59:02 21:03:01 56° 74° (ENE) 21:07:05 437.325/437.525
Oscar 11 17 Jan 21:03:53 21:07:22 24° 266° (W) 21:10:53 145.826/435.025
ESTCUBE 1 17 Jan 21:05:21 21:06:17 11° 60° (ENE) 21:07:13 437.505/2401.250
TIGRISAT 17 Jan 21:05:47 21:08:18 15° 92° (E) 21:10:51 435.000
BY70-1 17 Jan 21:19:10 21:21:17 18° 67° (ENE) 21:23:31 436.1900
ANTELSAT 17 Jan 21:19:27 21:22:55 22° 94° (E) 21:26:26 437.575/2403.000
Cosmos 2499 17 Jan 21:21:29 21:28:40 30° 290° (WNW) 21:35:29 435.465 / 435.565
PRISM 17 Jan 21:22:38 21:26:47 79° 104° (ESE) 21:30:52 437.425
AIST 2 17 Jan 21:31:49 21:35:00 21° 316° (NW) 21:38:13 435.215
DELFI C3 17 Jan 21:39:20 21:42:40 25° 265° (W) 21:46:02 145.870
RS-15 17 Jan 21:51:36 21:58:39 18° 96° (E) 22:05:49 29.354- 29.394
ISS 17 Jan 22:16:40 22:19:01 19° 133° (SE) 22:21:23 145.825
SPROUT 17 Jan 22:19:14 22:21:49 16° 64° (ENE) 22:24:24 437.525
CUBEBUG 1 17 Jan 22:20:31 22:24:34 36° 70° (ENE) 22:28:36 437.445
GONETS M04 17 Jan 22:23:14 22:28:46 18° 300° (WNW) 22:34:21
UNISAT 6 17 Jan 22:26:35 22:30:58 69° 285° (WNW) 22:35:26 437.425
JAS-2 17 Jan 22:26:42 22:33:26 44° 98° (E) 22:40:42 435.910
AISAT 17 Jan 22:29:11 22:33:04 30° 68° (ENE) 22:36:57 437.250
HUMSAT D 17 Jan 22:37:33 22:39:00 12° 270° (W) 22:40:28 437.325/437.525
ESTCUBE 1 17 Jan 22:37:50 22:42:22 87° 255° (WSW) 22:46:56 437.505/2401.250
TIGRISAT 17 Jan 22:40:59 22:45:15 52° 287° (WNW) 22:49:36 435.000
BY70-1 17 Jan 22:49:22 22:51:34 19° 266° (W) 22:53:54 436.1900
QB50P1 17 Jan 22:55:38 22:59:00 23° 95° (E) 23:02:21 145.935-145.965
ANTELSAT 17 Jan 22:55:41 22:59:41 35° 290° (WNW) 23:03:44 437.575/2403.000
POLYITAN 1 17 Jan 22:58:43 23:02:13 25° 95° (E) 23:05:43 437.675
QB50P2 17 Jan 22:59:45 23:03:23 27° 96° (E) 23:07:00 145.880/145.840
VELOX 1 17 Jan 23:02:07 23:06:31 64° 74° (ENE) 23:10:56 145.980
AO-85 17 Jan 23:03:14 23:07:08 66° 54° (NE) 23:11:01 145.980
50 SAT 17 Jan 23:12:27 23:15:58 60° 75° (ENE) 23:19:31 437.505
POPSAT HIP 1 17 Jan 23:21:45 23:25:47 43° 99° (E) 23:29:49 437.405
DUCHIFAT 1 17 Jan 23:36:15 23:40:23 55° 100° (E) 23:44:30 145.980
NANOSAT C BR1 17 Jan 23:40:11 23:44:23 68° 102° (ESE) 23:48:34 145.865
PCSat 17 Jan 23:40:40 23:42:34 12° 102° (ESE) 23:44:28 145.827
DX 1 17 Jan 23:44:03 23:48:26 89° 77° (ENE) 23:52:50 434.975-435.025
UKube-1 17 Jan 23:49:06 23:53:25 74° 75° (ENE) 23:57:45 .
YUBILEINY 17 Jan 23:49:34 23:55:58 21° 62° (ENE) 00:02:17 435.215
ISS 17 Jan 23:52:04 23:55:15 53° 330° (NNW) 23:58:27 145.825
SPROUT 17 Jan 23:53:14 23:57:21 48° 261° (W) 00:01:29 437.525
TISAT 1 17 Jan 23:56:34 00:00:03 26° 68° (ENE) 00:03:32 437.305
RS-15 17 Jan 23:57:05 00:08:51 76° 118° (ESE) 00:21:10 29.354- 29.394
CUBEBUG 1 17 Jan 23:57:33 00:00:56 21° 266° (W) 00:04:18 437.445
AISAT 18 Jan 00:05:46 00:09:30 26° 265° (W) 00:13:13 437.250
JAS-2 18 Jan 00:11:57 00:18:20 40° 293° (WNW) 00:25:15 435.910
ITUPSAT 1 18 Jan 00:16:31 00:17:12 10° 58° (ENE) 00:17:53 437.325
BUGSAT 1 18 Jan 00:22:50 00:26:52 66° 102° (ESE) 00:30:52 437.445
BEESAT 3 18 Jan 00:24:31 00:27:18 18° 43° (NE) 00:30:04 437.485
Oscar 19 18 Jan 00:28:43 00:32:35 21° 93° (E) 00:36:25 437.125/150
QB50P1 18 Jan 00:31:05 00:34:46 30° 291° (WNW) 00:38:28 145.935-145.965
POLYITAN 1 18 Jan 00:34:21 00:37:58 28° 291° (WNW) 00:41:35 437.675
QB50P2 18 Jan 00:35:35 00:39:05 26° 292° (WNW) 00:42:35 145.880/145.840
Cosmos 2491 18 Jan 00:39:58 00:45:41 20° 78° (ENE) 00:51:23 435.465 / 435.565
VELOX 1 18 Jan 00:41:34 00:43:23 12° 270° (W) 00:45:12 145.980
AO-85 18 Jan 00:46:54 00:46:56 10° 252° (WSW) 00:46:58 145.980
BEESAT 18 Jan 00:49:44 00:53:23 23° 65° (ENE) 00:57:04 436.000
SWISSCUBE 18 Jan 00:50:47 00:54:40 26° 66° (ENE) 00:58:34 437.505
Cosmos 2504 18 Jan 00:58:00 01:04:04 26° 67° (ENE) 01:09:53 435.465 / 435.565
POPSAT HIP 1 18 Jan 00:58:29 01:01:13 17° 295° (WNW) 01:03:57 437.405
BEESAT 2 18 Jan 01:02:48 01:05:48 19° 44° (NE) 01:08:45 435.950
AIST 1 18 Jan 01:12:43 01:17:00 84° 82° (E) 01:21:15
MOZHAYETS 4 18 Jan 01:13:23 01:14:30 11° 60° (ENE) 01:15:37
DUCHIFAT 1 18 Jan 01:13:28 01:15:36 14° 297° (WNW) 01:17:44 145.980
NANOSAT C BR1 18 Jan 01:18:04 01:19:32 12° 298° (WNW) 01:21:00 145.865
PCSat 18 Jan 01:19:42 01:25:07 89° 119° (ESE) 01:30:34 145.827
ISS 18 Jan 01:29:59 01:32:17 17° 349° (N) 01:34:34 145.825
TISAT 1 18 Jan 01:32:04 01:35:36 26° 264° (W) 01:39:08 437.305
AUBIESAT-1 18 Jan 01:34:18 01:35:26 11° 57° (ENE) 01:36:33 437.475
YUBILEINY 18 Jan 01:45:04 01:53:57 85° 264° (W) 02:02:43 435.215
ITUPSAT 1 18 Jan 01:49:28 01:54:13 84° 76° (ENE) 01:59:01 437.325
Gurwin Techsat 1B 18 Jan 01:58:19 02:03:39 77° 103° (ESE) 02:08:58 435.225
BUGSAT 1 18 Jan 02:00:34 02:01:41 11° 298° (WNW) 02:02:48 437.445
CUSAT 1 18 Jan 02:01:18 02:03:41 13° 77° (ENE) 02:06:19 437.405
BEESAT 3 18 Jan 02:01:18 02:05:13 53° 241° (WSW) 02:09:06 437.485
Oscar 19 18 Jan 02:07:10 02:12:08 48° 290° (WNW) 02:17:04 437.125/150
AO-7 18 Jan 02:08:40 02:14:07 19° 90° (E) 02:19:31 29.400- 29.500
RS-15 18 Jan 02:11:23 02:22:32 41° 324° (NW) 02:34:03 29.354- 29.394
KKS-1 18 Jan 02:12:06 02:14:36 15° 62° (ENE) 02:17:05 437.445
PHONESAT 2.4 18 Jan 02:20:04 02:20:42 11° 153° (SSE) 02:21:20 2401.200-2431.200
M-CUBED/EXP-1 PRIME 18 Jan 02:25:57 02:30:13 46° 68° (ENE) 02:34:14 437.505
BEESAT 18 Jan 02:26:26 02:30:54 41° 261° (W) 02:35:24 436.000
SWISSCUBE 18 Jan 02:27:57 02:32:16 35° 262° (W) 02:36:39 437.505
Cosmos 2491 18 Jan 02:32:37 02:41:20 85° 278° (W) 02:50:07 435.465 / 435.565
BEESAT 2 18 Jan 02:39:55 02:43:49 48° 242° (WSW) 02:47:42 435.950
ITAMSAT 1 18 Jan 02:43:46 02:48:41 41° 98° (E) 02:53:35 435.822/435.867
MOZHAYETS 4 18 Jan 02:46:22 02:50:55 86° 252° (WSW) 02:55:33
Cosmos 2504 18 Jan 02:50:41 02:57:58 58° 268° (W) 03:04:57 435.465 / 435.565
AUBIESAT-1 18 Jan 03:04:57 03:09:20 82° 253° (WSW) 03:13:27 437.475
PCSat 18 Jan 03:05:44 03:09:16 17° 319° (NW) 03:12:50 145.827
ISS 18 Jan 03:07:28 03:09:41 17° 9° (N) 03:11:53 145.825
STARS 18 Jan 03:11:40 03:15:22 27° 68° (ENE) 03:19:04 437.465
